Time,TemperatureF,DewpointF,PressureIn,WindDirection,WindDirectionDegrees,WindSpeedMPH,WindSpeedGustMPH,Humidity,HourlyPrecipIn,Conditions,Clouds,dailyrainin,SoftwareType,DateUTC
2013-02-26 00:13:00,23.4,22.9,30.08,West,270,0.0,-999.0,98,-99.99,,,0.00,Acu-Link.com,2013-02-26 05:13:00,
2013-02-26 00:28:00,23.4,22.9,30.09,North,0,0.0,-999.0,98,-99.99,,,0.00,Acu-Link.com,2013-02-26 05:28:00,
2013-02-26 00:43:00,23.0,22.5,30.10,NE,45,0.0,-999.0,98,-99.99,,,0.00,Acu-Link.com,2013-02-26 05:43:00,
2013-02-26 00:58:00,23.0,22.5,30.10,NNE,22,0.0,-999.0,98,-99.99,,,0.00,Acu-Link.com,2013-02-26 05:58:00,
2013-02-26 01:13:00,23.4,22.9,30.10,South,180,1.1,-999.0,98,-99.99,,,0.00,Acu-Link.com,2013-02-26 06:13:00,
2013-02-26 01:28:00,22.8,22.3,30.09,NNW,337,1.1,-999.0,98,-99.99,,,0.00,Acu-Link.com,2013-02-26 06:28:00,
2013-02-26 01:43:00,23.0,22.5,30.10,NNE,22,0.0,-999.0,98,-99.99,,,0.00,Acu-Link.com,2013-02-26 06:43:00,
2013-02-26 01:58:00,22.6,22.1,30.10,NE,45,0.0,-999.0,98,-99.99,,,0.00,Acu-Link.com,2013-02-26 06:58:00,
2013-02-26 02:14:00,22.5,22.0,30.10,WNW,292,2.2,-999.0,98,-99.99,,,0.00,Acu-Link.com,2013-02-26 07:14:00,
2013-02-26 02:29:00,22.6,22.1,30.10,WNW,292,0.0,-999.0,98,-99.99,,,0.00,Acu-Link.com,2013-02-26 07:29:00,
2013-02-26 02:44:00,22.3,21.8,30.10,NE,45,0.0,-999.0,98,-99.99,,,0.00,Acu-Link.com,2013-02-26 07:44:00,
2013-02-26 02:59:00,22.1,21.6,30.10,North,0,0.0,-999.0,98,-99.99,,,0.00,Acu-Link.com,2013-02-26 07:59:00,
2013-02-26 03:14:00,21.9,21.4,30.09,North,0,0.0,-999.0,98,-99.99,,,0.00,Acu-Link.com,2013-02-26 08:14:00,
2013-02-26 03:29:00,22.1,21.6,30.10,NE,45,0.0,-999.0,98,-99.99,,,0.00,Acu-Link.com,2013-02-26 08:29:00,
2013-02-26 03:44:00,21.7,21.2,30.11,NW,315,0.0,-999.0,98,-99.99,,,0.00,Acu-Link.com,2013-02-26 08:44:00,
2013-02-26 07:04:00,21.6,21.1,30.07,ENE,67,0.0,-999.0,98,-99.99,,,0.00,Acu-Link.com,2013-02-26 12:04:00,
2013-02-26 07:19:00,23.0,22.5,30.08,SSW,202,0.0,-999.0,98,-99.99,,,0.00,Acu-Link.com,2013-02-26 12:19:00,
2013-02-26 07:34:00,23.4,22.9,30.09,West,270,0.0,-999.0,98,-99.99,,,0.00,Acu-Link.com,2013-02-26 12:34:00,
2013-02-26 07:49:00,24.6,24.1,30.09,NE,45,0.0,-999.0,98,-99.99,,,0.00,Acu-Link.com,2013-02-26 12:49:00,
2013-02-26 08:04:00,26.1,25.6,30.10,SSE,157,0.0,-999.0,98,-99.99,,,0.00,Acu-Link.com,2013-02-26 13:04:00,
2013-02-26 08:20:00,27.3,26.8,30.10,North,0,0.0,-999.0,98,-99.99,,,0.00,Acu-Link.com,2013-02-26 13:20:00,
2013-02-26 08:35:00,28.8,28.3,30.10,NNE,22,1.7,-999.0,98,-99.99,,,0.00,Acu-Link.com,2013-02-26 13:35:00,
2013-02-26 08:50:00,30.0,29.5,30.11,NNE,22,1.1,-999.0,98,-99.99,,,0.00,Acu-Link.com,2013-02-26 13:50:00,
2013-02-26 09:05:00,31.1,30.3,30.10,NE,45,2.2,-999.0,97,-99.99,,,0.00,Acu-Link.com,2013-02-26 14:05:00,
2013-02-26 09:20:00,31.6,29.3,30.09,NNE,22,1.1,-999.0,91,-99.99,,,0.00,Acu-Link.com,2013-02-26 14:20:00,
2013-02-26 09:35:00,33.1,30.5,30.08,ESE,112,1.1,-999.0,90,-99.99,,,0.00,Acu-Link.com,2013-02-26 14:35:00,
2013-02-26 09:50:00,34.0,30.8,30.08,ESE,112,1.1,-999.0,88,-99.99,,,0.00,Acu-Link.com,2013-02-26 14:50:00,
2013-02-26 10:05:00,36.0,31.3,30.07,ENE,67,3.7,-999.0,83,-99.99,,,0.00,Acu-Link.com,2013-02-26 15:05:00,
2013-02-26 10:20:00,37.6,31.7,30.09,SE,135,1.7,-999.0,79,-99.99,,,0.00,Acu-Link.com,2013-02-26 15:20:00,
2013-02-26 10:36:00,38.5,31.6,30.08,NNE,22,4.7,-999.0,76,-99.99,,,0.00,Acu-Link.com,2013-02-26 15:36:00,
2013-02-26 10:51:00,39.4,32.1,30.07,East,90,1.7,-999.0,75,-99.99,,,0.00,Acu-Link.com,2013-02-26 15:51:00,
2013-02-26 11:06:00,39.4,31.8,30.06,NE,45,3.7,-999.0,74,-99.99,,,0.00,Acu-Link.com,2013-02-26 16:06:00,
2013-02-26 11:21:00,40.1,32.5,30.05,ESE,112,2.7,-999.0,74,-99.99,,,0.00,Acu-Link.com,2013-02-26 16:21:00,
2013-02-26 11:36:00,40.6,32.6,30.05,ENE,67,4.2,-999.0,73,-99.99,,,0.00,Acu-Link.com,2013-02-26 16:36:00,
2013-02-26 11:51:00,41.0,32.7,30.04,ESE,112,4.2,-999.0,72,-99.99,,,0.00,Acu-Link.com,2013-02-26 16:51:00,
2013-02-26 12:06:00,40.8,32.8,30.03,ENE,67,4.7,-999.0,73,-99.99,,,0.00,Acu-Link.com,2013-02-26 17:06:00,
2013-02-26 12:21:00,40.6,32.3,30.03,SSE,157,3.2,-999.0,72,-99.99,,,0.00,Acu-Link.com,2013-02-26 17:21:00,
2013-02-26 12:36:00,40.6,32.3,30.02,SSE,157,5.8,-999.0,72,-99.99,,,0.00,Acu-Link.com,2013-02-26 17:36:00,
2013-02-26 12:52:00,41.2,32.5,30.01,SE,135,3.7,-999.0,71,-99.99,,,0.00,Acu-Link.com,2013-02-26 17:52:00,
2013-02-26 13:07:00,41.4,33.1,30.00,NNW,337,2.2,-999.0,72,-99.99,,,0.00,Acu-Link.com,2013-02-26 18:07:00,
2013-02-26 13:22:00,42.1,33.0,29.98,SSE,157,3.7,-999.0,70,-99.99,,,0.00,Acu-Link.com,2013-02-26 18:22:00,
2013-02-26 13:37:00,42.4,33.0,29.97,ESE,112,3.7,-999.0,69,-99.99,,,0.00,Acu-Link.com,2013-02-26 18:37:00,
2013-02-26 13:52:00,42.8,32.6,29.97,SSE,157,4.7,-999.0,67,-99.99,,,0.00,Acu-Link.com,2013-02-26 18:52:00,
2013-02-26 14:07:00,44.1,32.7,29.96,South,180,2.7,-999.0,64,-99.99,,,0.00,Acu-Link.com,2013-02-26 19:07:00,
2013-02-26 14:23:00,41.9,31.4,29.96,NE,45,7.3,-999.0,66,-99.99,,,0.00,Acu-Link.com,2013-02-26 19:23:00,
2013-02-26 14:38:00,41.7,31.9,29.95,ENE,67,2.2,-999.0,68,-99.99,,,0.00,Acu-Link.com,2013-02-26 19:38:00,
2013-02-26 14:53:00,41.9,31.8,29.93,SE,135,3.7,-999.0,67,-99.99,,,0.00,Acu-Link.com,2013-02-26 19:53:00,
2013-02-26 15:08:00,41.5,32.1,29.92,ENE,67,7.8,-999.0,69,-99.99,,,0.00,Acu-Link.com,2013-02-26 20:08:00,
2013-02-26 15:23:00,41.0,32.0,29.91,North,0,5.8,-999.0,70,-99.99,,,0.00,Acu-Link.com,2013-02-26 20:23:00,
2013-02-26 15:38:00,40.1,33.2,29.91,NE,45,2.7,-999.0,76,-99.99,,,0.00,Acu-Link.com,2013-02-26 20:38:00,
2013-02-26 15:53:00,39.4,33.4,29.89,ESE,112,6.3,-999.0,79,-99.99,,,0.00,Acu-Link.com,2013-02-26 20:53:00,
2013-02-26 16:08:00,39.0,33.7,29.87,ESE,112,4.2,-999.0,81,-99.99,,,0.01,Acu-Link.com,2013-02-26 21:08:00,
2013-02-26 16:23:00,38.3,34.2,29.88,SE,135,3.7,-999.0,85,-99.99,,,0.01,Acu-Link.com,2013-02-26 21:23:00,
2013-02-26 16:38:00,38.1,34.3,29.87,North,0,1.7,-999.0,86,-99.99,,,0.02,Acu-Link.com,2013-02-26 21:38:00,
2013-02-26 16:54:00,37.9,34.7,29.85,ESE,112,4.7,-999.0,88,-99.99,,,0.03,Acu-Link.com,2013-02-26 21:54:00,
2013-02-26 17:09:00,37.4,35.0,29.85,NE,45,4.2,-999.0,91,-99.99,,,0.04,Acu-Link.com,2013-02-26 22:09:00,
2013-02-26 17:24:00,36.7,35.1,29.85,NNW,337,3.7,-999.0,94,-99.99,,,0.05,Acu-Link.com,2013-02-26 22:24:00,
2013-02-26 17:39:00,36.5,35.5,29.84,North,0,2.7,-999.0,96,-99.99,,,0.06,Acu-Link.com,2013-02-26 22:39:00,
2013-02-26 17:54:00,36.3,35.5,29.82,East,90,9.4,-999.0,97,-99.99,,,0.07,Acu-Link.com,2013-02-26 22:54:00,
2013-02-26 18:09:00,35.6,35.1,29.82,NE,45,3.2,-999.0,98,-99.99,,,0.09,Acu-Link.com,2013-02-26 23:09:00,
2013-02-26 18:24:00,35.2,34.7,29.81,NNE,22,4.2,-999.0,98,-99.99,,,0.10,Acu-Link.com,2013-02-26 23:24:00,
2013-02-26 18:39:00,35.4,34.9,29.80,NE,45,2.7,-999.0,98,-99.99,,,0.11,Acu-Link.com,2013-02-26 23:39:00,
2013-02-26 18:54:00,35.2,34.7,29.78,ESE,112,3.2,-999.0,98,-99.99,,,0.12,Acu-Link.com,2013-02-26 23:54:00,
2013-02-26 19:10:00,35.2,34.7,29.76,North,0,3.2,-999.0,98,-99.99,,,0.13,Acu-Link.com,2013-02-27 00:10:00,
2013-02-26 19:25:00,35.2,34.7,29.76,ENE,67,3.7,-999.0,98,-99.99,,,0.13,Acu-Link.com,2013-02-27 00:25:00,
2013-02-26 19:40:00,35.2,34.7,29.76,North,0,2.7,-999.0,98,-99.99,,,0.14,Acu-Link.com,2013-02-27 00:40:00,
2013-02-26 19:55:00,35.2,34.7,29.75,North,0,3.2,-999.0,98,-99.99,,,0.14,Acu-Link.com,2013-02-27 00:55:00,
2013-02-26 20:10:00,35.4,34.9,29.75,ESE,112,5.8,-999.0,98,-99.99,,,0.14,Acu-Link.com,2013-02-27 01:10:00,
2013-02-26 20:25:00,35.6,35.1,29.72,NNE,22,5.8,-999.0,98,-99.99,,,0.15,Acu-Link.com,2013-02-27 01:25:00,
2013-02-26 20:40:00,35.8,35.3,29.72,East,90,2.7,-999.0,98,-99.99,,,0.16,Acu-Link.com,2013-02-27 01:40:00,
2013-02-26 20:55:00,35.4,34.9,29.71,NNE,22,2.7,-999.0,98,-99.99,,,0.18,Acu-Link.com,2013-02-27 01:55:00,
2013-02-26 21:11:00,35.4,34.9,29.69,NNE,22,5.3,-999.0,98,-99.99,,,0.20,Acu-Link.com,2013-02-27 02:11:00,
2013-02-26 21:26:00,35.2,34.7,29.71,WNW,292,4.7,-999.0,98,-99.99,,,0.24,Acu-Link.com,2013-02-27 02:26:00,
2013-02-26 21:41:00,35.2,34.7,29.71,NE,45,6.8,-999.0,98,-99.99,,,0.26,Acu-Link.com,2013-02-27 02:41:00,
2013-02-26 21:56:00,34.7,34.2,29.72,ESE,112,3.2,-999.0,98,-99.99,,,0.27,Acu-Link.com,2013-02-27 02:56:00,
2013-02-26 22:11:00,34.3,33.8,29.69,East,90,3.7,-999.0,98,-99.99,,,0.28,Acu-Link.com,2013-02-27 03:11:00,
2013-02-26 22:26:00,34.0,33.5,29.70,SSE,157,1.1,-999.0,98,-99.99,,,0.29,Acu-Link.com,2013-02-27 03:26:00,
2013-02-26 22:41:00,34.0,33.5,29.69,SSE,157,3.7,-999.0,98,-99.99,,,0.30,Acu-Link.com,2013-02-27 03:41:00,
2013-02-26 22:56:00,33.8,33.3,29.68,NNE,22,2.2,-999.0,98,-99.99,,,0.31,Acu-Link.com,2013-02-27 03:56:00,
2013-02-26 23:11:00,33.8,33.3,29.69,SSE,157,1.1,-999.0,98,-99.99,,,0.31,Acu-Link.com,2013-02-27 04:11:00,
2013-02-26 23:26:00,33.8,33.3,29.67,ENE,67,1.7,-999.0,98,-99.99,,,0.32,Acu-Link.com,2013-02-27 04:26:00,
2013-02-26 23:42:00,33.6,33.1,29.66,East,90,0.0,-999.0,98,-99.99,,,0.33,Acu-Link.com,2013-02-27 04:42:00,
2013-02-26 23:57:00,33.6,33.1,29.65,NNE,22,2.7,-999.0,98,-99.99,,,0.34,Acu-Link.com,2013-02-27 04:57:00,